Tracking 27126 objects as of 31-Mar-2023
HD Live streaming from Space Station
objects crossing your sky now

STARLINK-1818

Track STARLINK-1818 now!
10-day predictions
STARLINK-1818 is classified as:


NORAD ID: 46716
Int'l Code: 2020-073AY
Perigee: 553.6 km
Apogee: 555.2 km
Inclination: 53.1 °
Period: 95.6 minutes
Semi major axis: 6925 km
RCS: Unknown
Launch date: October 18, 2020
Source: United States (US)
Launch site: AIR FORCE EASTERN TEST RANGE (AFETR)
Your satellite tracking list
Your tracking list is empty




NASA's NSSDC Master Catalog

Two Line Element Set (TLE):
1 46716U 20073AY  23089.19303328 -.00003201  00000-0 -19622-3 0  9998
2 46716  53.0542  44.7078 0001149 108.0741 252.0373 15.06381081135296
Source of the keplerian elements: AFSPC